Tracking 25612 objects as of 20-May-2022
HD Live streaming from Space Station
objects crossing your sky now

CZ-4C DEB

Track CZ-4C DEB now!
10-day predictions


NORAD ID: 43410
Int'l Code: 2013-052E
Perigee: 807.7 km
Apogee: 1,173.0 km
Inclination: 98.8 °
Period: 104.8 minutes
Semi major axis: 7361 km
RCS: Unknown
Launch date: September 23, 2013
Source: People's Republic of China (PRC)
Launch site: Taiyaun Space Center, China (TSC)

Note: This is SATELLITE DEBRIS
aabbcc
Your satellite tracking list
Your tracking list is empty




NASA's NSSDC Master Catalog

Two Line Element Set (TLE):
1 43410U 13052E   22140.43735373  .00000437  00000-0  40119-3 0  9999
2 43410  98.8327  18.5774 0248060  63.2135 299.4160 13.74570073425877
Source of the keplerian elements: AFSPC